Dewpoint
19 20 22 21 21 21 19 17 11 12 20 20 25 29 31 32 32 30 28 28 29 29 29 29 29 29 29 30 31 31 32 32 33 33 34 34 35 35 35 35 35 36 36 37
14 18 17 16 18 22 22 20 20 20 18 22 21 30 32 31 31 30 29 28 29 29 28 28 28 28 29 31 31 32 32 32 33 33 33 34 34 34 34 34 34 35 35 35
10 18 14 10 13 19 19 23 21 18 16 18 19 27 31 31 31 31 29 28 28 27 27 28 28 29 31 31 33 33 32 33 33 34 33 34 33 33 33 33 34 34 34 35
16 13 0 5 19 20 19 17 24 21 20 20 18 26 30 32 31 31 29 27 27 27 27 28 31 30 28 27 31 30 29 30 31 32 33 33 32 32 32 33 33 34 34 34
14 11 7 7 16 13 16 6 19 21 22 25 25 25 26 27 30 29 26 26 26 27 29 31 29 26 25 25 26 26 27 27 29 30 31 31 31 31 31 32 32 32 33 32
17 13 6 6 15 20 13 5 16 20 21 25 25 22 24 24 25 25 26 27 29 30 30 27 26 26 25 24 25 23 26 28 28 29 29 29 30 31 31 31 32 32 31 31
20 17 16 17 19 20 4 10 19 21 22 26 25 25 25 25 26 27 29 29 29 27 26 25 26 24 23 23 22 24 27 28 28 28 28 28 29 30 30 31 31 31 30 31
21 19 14 21 20 11 11 25 24 23 25 26 25 25 26 27 28 29 27 27 25 25 25 25 26 23 22 20 23 25 25 26 26 26 26 27 29 28 29 30 29 29 29 30
20 20 19 22 19 20 22 22 24 26 27 26 25 25 27 28 29 28 26 25 25 24 23 22 24 22 20 19 21 21 22 23 24 25 25 27 28 27 27 28 27 27 29 30
22 23 23 23 23 24 24 23 24 24 27 27 25 26 27 28 27 26 24 23 23 21 20 18 19 19 18 18 19 19 19 21 24 24 26 26 27 27 26 26 26 26 29 29
21 21 22 22 24 23 25 25 24 25 26 26 26 26 27 28 25 23 23 23 22 20 19 18 18 18 18 19 20 19 20 21 23 24 25 25 26 26 25 27 28 28 30 30
14 20 19 18 22 25 25 25 26 26 26 27 27 27 28 26 23 23 22 21 20 19 18 18 18 19 20 21 21 20 20 21 22 24 25 25 25 25 28 30 32 33 34 33
17 19 21 22 23 26 26 27 27 26 27 27 27 26 25 22 21 23 21 20 19 19 19 19 20 20 21 21 21 21 21 21 21 23 23 23 24 24 24 25 29 31 31 32
22 23 22 24 22 24 26 27 30 27 25 24 23 23 23 22 23 22 21 20 20 20 20 21 21 21 21 22 22 22 21 26 25 25 25 25 25 25 25 25 25 26 29 30
22 24 24 24 25 26 26 26 26 24 22 22 22 22 21 21 23 21 21 20 20 20 21 21 21 21 21 22 21 21 21 22 22 23 24 25 25 26 26 26 26 26 26 27
25 25 26 25 25 26 24 23 23 22 22 21 21 21 21 21 21 21 21 21 20 19 19 19 19 20 21 21 21 22 22 26 27 26 26 26 26 26 26 26 26 26 25 25
27 26 26 25 25 24 22 22 22 21 21 20 20 21 20 20 20 20 20 20 20 20 20 20 20 21 21 21 21 22 23 23 26 26 25 25 25 25 25 25 25 25 25 26
29 29 27 25 25 23 22 22 22 21 21 22 22 20 20 19 18 18 18 19 20 20 20 20 20 21 22 21 22 22 23 23 24 24 24 24 25 25 25 26 26 26 26 27
26 25 26 25 24 23 23 23 22 21 21 20 19 18 18 18 18 18 19 19 19 18 17 19 24 26 24 24 26 25 24 24 24 24 25 26 26 26 26 25 25 26 26 26
25 25 25 24 24 23 22 21 20 18 18 18 17 16 15 15 16 17 17 17 18 17 18 20 21 21 22 23 26 25 26 26 25 25 25 25 25 26 26 27 27 26 25 24
22 22 21 21 20 19 20 18 17 15 16 16 15 14 14 15 15 17 17 17 16 21 22 24 24 23 23 24 26 26 26 26 26 25 25 25 25 26 26 26 26 25 25 25
20 20 21 19 17 16 16 16 15 15 14 15 16 17 17 17 18 19 19 18 19 23 23 23 23 25 25 28 26 26 26 26 26 26 25 26 26 26 25 26 26 26 27 28
22 19 18 18 18 17 17 17 17 17 18 20 21 21 21 21 21 19 18 18 22 23 23 23 25 27 28 27 27 27 27 27 27 27 27 28 28 28 27 27 29 30 27 27
21 20 20 20 21 22 21 21 23 24 25 25 25 25 23 22 21 22 21 24 25 26 25 26 26 29 29 27 26 26 27 26 26 26 27 28 28 29 29 28 27 27 27 27
23 23 22 21 22 22 23 24 23 23 22 22 22 22 22 23 22 20 21 22 25 25 24 26 27 28 27 26 26 26 25 25 25 28 28 29 28 27 27 27 27 27 26 26
16 16 17 18 19 20 20 21 20 19 18 17 18 19 20 21 21 22 22 23 22 24 24 24 24 24 25 25 25 25 25 25 27 27 27 27 26 26 26 26 25 24 24 24
19 22 20 19 19 19 19 19 18 18 19 19 18 19 20 20 21 22 23 21 22 22 22 23 24 24 24 24 24 25 25 26 28 25 24 24 25 26 26 26 26 25 25 25
Lifted_Index
5 5 5 4 4 4 4 4 4 3 4 5 6 6 7 7 7 7 8 8 9 9 10 10 11 12 13 13 13 13 13 13 14 14 15 15 14 14 14 14 14 14 14 14
5 5 5 4 4 4 4 4 4 3 4 5 6 7 7 7 7 7 8 8 9 9 10 11 12 12 13 13 13 13 13 14 14 14 15 15 15 15 15 15 15 14 14 14
4 5 4 4 4 4 4 4 4 4 4 6 7 7 8 8 8 8 8 9 9 10 10 11 12 12 12 13 13 13 14 14 14 14 14 14 15 15 15 15 15 15 15 14
4 4 4 4 5 5 5 5 5 5 6 6 7 8 9 9 9 9 9 9 9 10 11 12 12 12 12 13 13 14 14 14 14 14 14 14 15 15 15 15 15 15 15 15
4 4 4 5 6 6 6 6 6 7 7 7 8 9 9 9 9 9 9 9 10 10 11 12 12 12 12 12 13 14 14 13 13 14 14 14 15 15 15 15 16 16 15 15
5 4 4 6 7 8 7 6 7 7 7 8 8 8 9 9 9 9 9 9 10 11 11 12 12 12 12 12 13 13 13 13 13 14 14 14 14 15 16 16 17 17 17 16
5 5 5 7 8 8 7 7 8 8 8 8 8 9 9 9 9 9 9 10 10 11 11 11 11 12 12 12 13 13 13 13 14 14 14 15 15 16 17 17 17 17 17 17
6 5 6 7 8 8 8 8 9 9 9 9 9 9 10 10 10 10 10 10 10 10 11 11 11 11 12 12 13 13 13 13 14 14 15 15 16 16 17 17 17 16 16 16
6 6 6 7 8 8 8 9 9 9 9 9 9 9 9 9 9 9 9 10 10 10 10 10 11 12 12 12 13 13 13 13 13 14 15 16 16 16 16 16 16 16 16 15
7 7 7 7 7 8 8 9 9 9 9 9 9 8 8 9 9 9 9 9 10 10 10 10 11 12 12 13 13 13 12 13 14 14 15 15 16 16 16 15 15 15 15 15
7 7 7 7 7 8 8 8 8 9 9 9 8 8 8 8 8 9 9 9 9 9 10 11 11 12 13 13 13 13 13 13 14 14 15 15 15 15 15 15 15 15 15 15
7 7 7 7 7 7 8 8 8 8 8 8 8 8 8 8 8 8 9 9 9 10 10 11 11 12 13 14 14 13 13 13 14 14 14 15 15 14 14 14 14 14 14 14
7 7 7 7 7 7 7 8 8 8 8 8 8 8 8 8 8 8 9 9 10 10 10 11 11 12 13 14 14 14 14 14 14 14 14 14 14 14 14 14 13 13 13 13
7 7 7 7 7 7 7 7 8 8 8 8 8 8 8 8 8 9 9 10 10 10 10 11 11 12 13 14 14 14 14 14 14 13 13 13 13 13 13 13 13 12 12 11
7 7 7 7 7 7 7 7 7 7 7 7 7 7 8 8 9 9 9 10 10 10 11 11 12 13 13 13 13 13 13 13 13 13 12 12 12 12 12 12 12 11 11 11
6 6 6 6 6 6 6 7 6 6 7 7 7 8 8 9 9 9 9 10 10 11 11 12 13 13 13 12 12 12 12 12 11 11 11 11 11 11 10 10 10 10 10 10
6 6 5 6 6 6 6 7 7 7 7 7 8 8 9 9 9 9 10 11 11 12 12 12 12 12 11 11 10 10 10 10 10 10 10 10 9 9 9 9 10 10 10 10
5 6 6 6 6 6 6 6 7 7 7 8 8 9 9 9 9 10 11 12 12 11 11 11 11 10 9 9 9 9 9 9 9 8 8 8 9 9 9 9 9 9 9 9
6 6 6 6 6 6 6 6 7 7 8 8 9 9 10 10 10 11 11 11 10 10 9 9 9 8 8 7 7 8 8 8 8 8 8 8 8 8 8 8 8 8 8 8
6 6 6 5 5 5 6 6 7 8 9 9 10 10 10 10 10 10 10 9 8 7 7 7 7 7 7 7 7 7 7 7 7 7 7 7 7 7 7 7 7 7 7 7
5 5 5 5 5 6 7 7 8 9 9 10 10 10 9 9 9 9 8 7 6 6 6 6 6 6 6 6 7 7 7 7 7 7 7 7 7 7 6 6 6 6 6 6
5 5 5 6 6 7 8 8 8 9 9 9 9 8 8 7 7 6 6 5 5 5 5 6 6 6 6 6 6 6 7 7 7 7 6 6 6 6 5 5 5 5 5 5
5 5 6 7 7 8 8 8 7 7 7 7 7 6 6 6 5 5 5 5 5 6 6 6 6 6 6 6 6 6 6 6 6 6 6 6 5 5 5 5 5 5 5 5
5 6 6 7 7 7 6 6 6 6 6 6 5 5 5 5 5 5 5 6 6 6 6 6 6 6 6 6 6 6 6 6 6 5 5 5 5 4 4 4 4 5 5 5
5 5 6 6 6 6 5 5 5 5 5 5 5 5 5 5 5 6 6 6 6 6 6 6 6 6 6 6 6 6 5 5 5 5 4 4 4 4 4 4 4 4 5 5
5 5 5 5 5 5 5 5 5 5 4 5 5 5 5 6 6 6 6 6 6 6 6 6 5 5 5 5 5 5 5 4 4 4 3 3 3 3 3 4 4 4 5 6
5 5 5 5 5 5 5 5 5 5 5 5 5 5 6 6 6 6 6 6 6 6 6 6 5 5 4 4 4 4 4 4 3 3 3 3 3 3 3 3 4 5 6 7